This demonstration page uses our WeatherBlox Daily Observations layout. Learn more.

Left ArrowRight Arrow

34.16533, -84.80231

Hourly Observations for June 28, 2019

Temp ( °F °C ) Dew Point ( °F °C ) Humidity (%) Winds ( mph kmh ) Pressure ( in mb ) Visibility ( mi km ) Precip ( " mm )
12:53 am 00:53 Clear 69 20.6 66 18.9 90 90 Calm 30.16 1021 10 16 0.00 0.00
1:53 am 01:53 Clear 68 20 66 18.9 93 93 Calm 30.16 1021 10 16 0.00 0.00
2:53 am 02:53 Clear 67 19.4 65 18.3 93 93 Calm 30.16 1021 10 16 0.00 0.00
4:53 am 04:53 Clear 70 21.1 65 18.3 84 84 Calm 30.14 1021 10 16 0.00 0.00
5:53 am 05:53 Clear 67 19.4 64 17.8 91 91 Calm 30.15 1021 10 16 0.00 0.00
6:53 am 06:53 Sunny 69 20.6 63 17.2 81 81 E 3 6 30.16 1021 10 16 0.00 0.00
7:53 am 07:53 Sunny 71 21.7 65 18.3 81 81 Calm 30.19 1022 10 16 0.00 0.00
8:53 am 08:53 Sunny 75 23.9 64 17.8 69 69 VRB 6 9 30.20 1023 10 16 0.00 0.00
9:53 am 09:53 Sunny 79 26.1 66 18.9 65 65 VRB 3 6 30.20 1023 10 16 0.00 0.00
10:53 am 10:53 Sunny 82 27.8 67 19.4 60 60 VRB 5 7 30.18 1022 10 16 0.00 0.00
11:53 am 11:53 Sunny 85 29.4 67 19.4 55 55 SSE 7 11 30.18 1022 10 16 0.00 0.00
12:53 pm 12:53 Mostly Sunny 87 30.6 66 18.9 50 50 SSE 3 6 30.17 1022 10 16 0.00 0.00
1:53 pm 13:53 Partly Cloudy 89 31.7 65 18.3 45 45 SSE 7 11 30.15 1021 10 16 0.00 0.00
2:53 pm 14:53 Partly Cloudy 90 32.2 65 18.3 44 44 SSE 8 13 30.13 1020 10 16 0.00 0.00
3:53 pm 15:53 Mostly Sunny 89 31.7 63 17.2 42 42 ESE 9 15 30.10 1019 10 16 0.00 0.00
4:53 pm 16:53 Cloudy 89 31.7 63 17.2 42 42 E 8 13 30.09 1019 10 16 0.00 0.00
5:53 pm 17:53 Mostly Sunny 90 32.2 62 16.7 39 39 SSE 8 13 30.08 1019 10 16 0.00 0.00
6:53 pm 18:53 Mostly Cloudy 87 30.6 65 18.3 48 48 NE 6 9 30.08 1019 10 16 0.00 0.00
7:02 pm 19:02 Mostly Cloudy with Heavy Rain 81 27.2 67 19.4 62 62 N 20 31 30.11 1020 2 3 0.13 3.30
7:11 pm 19:11 Mostly Cloudy with Light Rain 74 23.3 69 20.6 85 85 VRB 6 9 30.10 1019 3 5 0.17 4.32
7:29 pm 19:29 Cloudy with Rain 73 22.8 72 22.2 96 96 W 5 7 30.10 1019 2 3 0.24 6.10
7:36 pm 19:36 Mostly Cloudy with Thunderstorms 72 22.2 71 21.7 97 97 Calm 30.11 1020 2 3 0.25 6.35
7:44 pm 19:44 Mostly Cloudy with Thunderstorms 73 22.8 71 21.7 94 94 Calm 30.10 1019 7 11 0.25 6.35
7:53 pm 19:53 Partly Cloudy with Mist and Fog 74 23.3 73 22.8 97 97 Calm 30.10 1019 6 10 0.25 6.35
8:53 pm 20:53 Sunny with Mist and Fog 73 22.8 72 22.2 96 96 Calm 30.11 1020 5 8 0.00 0.00
9:53 pm 21:53 Clear with Mist and Fog 71 21.7 70 21.1 96 96 Calm 30.13 1020 6 10 0.00 0.00
10:53 pm 22:53 Clear with Mist and Fog 70 21.1 69 20.6 97 97 Calm 30.14 1021 6 10 0.00 0.00
11:53 pm 23:53 Clear with Mist and Fog 70 21.1 69 20.6 97 97 Calm 30.14 1021 6 10 0.00 0.00

Powered by AerisWeather